Location: Staunton
(38.1490°N, 79.0720°W)
Time: 11:53:18
(UTC-04:00)

ISS - Pass Details

Date: 23 May 2020
Orbit: 417 x 420 km, 51.6° (Epoch: 26 May)

Event Time Altitude Azimuth Distance (km) Brightness Sun altitude
Rises 20:53:04 0° 285° (WNW) 2,358 1.8 -5.2°
Reaches altitude 10° 20:56:13 10° 317° (NW) 1,497 0.6 -5.7°
Maximum altitude 20:57:41 12° 343° (NNW) 1,367 -0.3 -6.0°
Drops below altitude 10° 20:59:09 10° 9° (N) 1,499 -0.6 -6.2°
Sets 21:02:18 0° 41° (NE) 2,366 0.0 -6.7°
